[[{"header":{"parameterUnit":"m.s-1","parameterCategory":1,"la1":30.2991,"la2":30.254,"lo1":-89.0895,"lo2":-89.0444,"dy":0.0017,"dx":0.0017,"nx":28,"ny":28,"refTime":"2024-06-09T21:00:00:Z","depth":0,"parameterNumber":2,"parameterNumberName":"U-component_of_WINDS"},"data":[0,0,0,0,0,0,0,0,0,0,0,0,0,0,0,0,0,0,0,0,0,0,0,0,0,0,0,0,0,0,0,0,0,0,0,0,0,0,0,0,0,0,0,0,0,0,0,0,0,0,0,0,0,0,0,0,0,0,-3.8799,-3.8799,0,-3.8797,-3.8797,-3.8797,-3.8733,-3.8731,-3.8729,-3.8728,-3.8725,-3.8726,-3.8728,0,0,0,0,0,0,0,0,0,0,0,0,0,-3.8748,-3.875,-3.8799,-3.8799,-3.8799,-3.8797,-3.8797,-3.8797,-3.8733,-3.8731,-3.8729,-3.8727,-3.8724,-3.8726,-3.8728,0,0,0,0,0,0,0,0,0,0,0,0,0,-3.8761,-3.875,-3.8799,-3.8767,-3.8764,-3.8797,-3.8797,-3.8797,-3.8733,-3.8731,-3.8728,-3.8726,-3.8724,-3.8726,-3.8728,-3.8791,0,0,-3.8735,-3.8736,0,0,0,0,0,0,0,0,-3.876,-3.8763,-3.8772,-3.8769,-3.8766,-3.8762,-3.8778,-3.8795,-3.8734,-3.8745,-3.8728,-3.8725,-3.8739,-3.874,-3.8745,-3.8791,-3.8791,-3.8735,-3.8736,-3.8737,-3.8738,0,0,0,0,0,0,0,-3.8759,-3.8762,-3.8798,-3.8772,-3.8769,-3.8753,-3.8752,-3.8781,-3.8756,-3.8744,-3.8739,-3.874,-3.8737,-3.8743,-3.8744,-3.8791,-3.8735,-3.8737,-3.8738,-3.8739,-3.8889,-3.8891,0,0,0,0,0,0,-3.8763,-3.8762,-3.8798,-3.8798,-3.8757,-3.8756,-3.8754,-3.8766,-3.8756,-3.8752,-3.8742,-3.8737,-3.8741,-3.8742,-3.8744,-3.8818,-3.8737,-3.8739,-3.874,-3.8886,-3.8889,-3.8892,0,0,0,0,0,0,-3.8762,-3.8767,-3.8798,-3.8779,-3.8782,-3.8759,-3.8773,-3.8767,-3.8773,-3.8754,-3.8749,-3.8752,-3.8739,-3.8741,-3.878,-3.8817,-3.874,-3.8742,-3.8883,-3.8887,-3.8891,-3.8965,0,0,0,0,0,0,-3.8761,-3.8767,-3.879,-3.878,-3.8783,-3.8835,-3.8775,-3.8769,-3.8777,-3.877,-3.8763,-3.8759,-3.8737,-3.8777,-3.8782,-3.8818,-3.8744,-3.888,-3.8885,-3.889,-3.8959,-3.8971,-3.8981,0,0,0,0,0,-3.8759,-3.8811,-3.8792,-3.8797,-3.8812,-3.8837,-3.8838,-3.8812,-3.878,-3.8804,-3.8792,-3.8759,-3.8812,-3.8782,-3.8787,-3.8824,-3.8877,-3.8883,-3.8889,-3.8954,-3.8969,-3.8981,0,0,0,0,0,0,-3.8826,-3.8809,-3.8788,-3.8838,-3.8839,-3.8826,-3.8855,-3.8828,-3.8839,-3.8832,-3.8798,-3.8797,-3.8842,-3.8837,-3.8803,-3.8885,-3.8839,-3.8846,-3.8887,-3.89,-3.8911,-3.8911,-3.8746,0,0,0,0,0,-3.8847,-3.8868,-3.8852,-3.8898,-3.89,-3.8878,-3.8887,-3.8867,-3.8867,-3.8867,-3.8858,-3.8859,-3.8876,-3.8888,-3.8902,-3.8958,-3.8956,-3.8987,-3.8998,-3.9007,-3.9014,-3.9044,-3.9057,-3.8912,-3.8912,-3.8912,0,0,-3.8889,-3.8883,-3.8898,-3.8911,-3.891,-3.8933,-3.8878,-3.8905,-3.8922,-3.8871,-3.8908,-3.8901,-3.89,-3.8949,-3.8969,-3.8946,-3.9053,-3.9014,-3.9022,-3.9024,-3.9051,-3.9065,-3.9077,-3.8916,-3.8915,-3.8915,0,0,-3.8979,-3.8976,-3.9014,-3.9015,-3.9014,-3.8999,-3.9008,-3.8999,-3.8993,-3.9029,-3.8992,-3.9011,-3.9041,-3.9042,-3.9047,-3.9138,-3.9109,-3.9144,-3.9201,-3.9231,-3.9243,-3.9253,-3.9286,-3.9298,-3.9151,-3.9151,-3.9151,0,-3.9032,-3.9066,-3.9037,-3.9067,-3.9074,-3.9029,-3.9068,-3.9069,-3.9073,-3.9079,-3.9053,-3.909,-3.9086,-3.9134,-3.9157,-3.9162,-3.9171,-3.9144,-3.9243,-3.9253,-3.9262,-3.9293,-3.9306,-3.9155,-3.9155,-3.9154,-3.9154,0,-3.9131,-3.9155,-3.9186,-3.9192,-3.9202,-3.9236,-3.9213,-3.9227,-3.9206,-3.9194,-3.9232,-3.9226,-3.9239,-3.9249,-3.9228,-3.9294,-3.928,-3.9249,-3.9202,-3.9281,-3.9309,-3.9321,-3.9161,-3.916,-3.9158,-3.9157,0,0,-3.9262,-3.9253,-3.9265,-3.9267,-3.9263,-3.9281,-3.9313,-3.9326,-3.9339,-3.9344,-3.937,-3.9397,-3.9368,-3.9374,-3.9353,-3.9379,-3.9453,-3.9345,-3.9344,-3.9366,-3.9526,-3.955,-3.9564,-3.9433,-3.9436,-3.9437,-3.9527,0,-3.935,-3.9404,-3.938,-3.9437,-3.9459,-3.9418,-3.9446,-3.9447,-3.9437,-3.9454,-3.9443,-3.9462,-3.9423,-3.9426,-3.945,-3.9439,-3.9485,-3.9432,-3.9458,-3.9459,-3.946,-3.9579,-3.9604,-3.9689,-3.9538,-3.954,-3.9541,0,-3.9458,-3.9468,-3.9528,-3.9521,-3.953,-3.9555,-3.9566,-3.9583,-3.9583,-3.9574,-3.9581,-3.9554,-3.9586,-3.9539,-3.9582,-3.9547,-3.9556,-3.9552,-3.9555,-3.9556,-3.9505,-3.9584,-3.9715,-3.9728,-3.9558,-3.9557,-3.9556,0,-3.9549,-3.9577,-3.9616,-3.962,-3.9613,-3.9632,-3.963,-3.9628,-3.9638,-3.9647,-3.9653,-3.9665,-3.9672,-3.9683,-3.9661,-3.9629,-3.9707,-3.9659,-3.9701,-3.9701,-3.9719,-3.9718,-3.9853,-3.9725,-3.9724,-3.9724,-3.9724,0,-3.9649,-3.9687,-3.9657,-3.9681,-3.9723,-3.9695,-3.9737,-3.9731,-3.973,-3.9752,-3.9717,-3.9739,-3.9708,-3.9727,-3.971,-3.9749,-3.9752,-3.9746,-3.9741,-3.9749,-3.975,-3.9754,-3.9748,-3.9727,-3.9727,-3.9726,-3.9725,0,-3.9757,-3.9738,-3.9779,-3.9769,-3.9768,-3.9799,-3.9791,-3.9813,-3.9801,-3.983,-3.9835,-3.9816,-3.9836,-3.9815,-3.9834,-3.9823,-3.9875,-3.9861,-3.9875,-3.9871,-3.9915,-3.9911,-4.0057,-4.0075,-3.9935,-3.9937,-3.9938,0,-3.9822,-3.985,-3.9844,-3.9857,-3.9858,-3.9879,-3.9889,-3.9862,-3.9874,-3.9877,-3.9899,-3.9917,-3.993,-3.9965,-3.9953,-3.9967,-3.9954,-4.0004,-3.9956,-3.9963,-3.9955,-3.9954,-3.9957,-4.0014,-4.0016,-4.0017,-4.0018,0,-3.994,-3.9929,-3.9945,-3.9959,-3.9972,-3.9981,-3.9987,-4.0,-3.9972,-3.9987,-4.0008,-4.0019,-4.0038,-4.0057,-4.0068,-4.0065,-4.0038,-4.0034,-4.0044,-4.0053,-4.006,-4.0057,-3.9902,-4.003,-4.0029,-4.0028,-4.0027,-4.0027,-4.0028,-4.0052,-4.0052,-4.0071,-4.0073,-4.008,-4.0101,-4.0092,-4.0109,-4.0124,-4.0107,-4.0133,-4.0133,-4.0145,-4.0147,-4.0167,-4.0145,-4.0161,-4.0164,-4.0169,-4.0175,-4.0057,-4.0168,-4.0168,-4.0168,-4.0167,-4.0167,0,-4.0145,-4.0143,-4.0161,-4.0171,-4.0187,-4.016,-4.0165,-4.018,-4.0203,-4.0206,-4.022,-4.0245,-4.0262,-4.0252,-4.0267,-4.0285,-4.0273,-4.029,-4.0289,-4.0289,-4.0193,-4.0183,-4.03,-4.03,-4.03,-4.03,-4.03,-4.03,-4.0207,-4.0246,-4.0236,-4.0277,-4.0274,-4.03,-4.0306,-4.0312,-4.0314,-4.0343,-4.0358,-4.0352,-4.0349,-4.0364,-4.038,-4.0376,-4.0384,-4.0406,-4.0398,-4.0309,-4.0296,-4.0283,-4.0273,-4.0408,-4.0408,-4.0492,-4.0493,-4.0493]},{"header":{"parameterUnit":"m.s-1","parameterCategory":1,"la1":30.2991,"la2":30.254,"lo1":-89.0895,"lo2":-89.0444,"dy":0.0017,"dx":0.0017,"nx":28,"ny":28,"refTime":"2024-06-09T21:00:00:Z","depth":0,"parameterNumber":3,"parameterNumberName":"V-component_of_WINDS"},"data":[0,0,0,0,0,0,0,0,0,0,0,0,0,0,0,0,0,0,0,0,0,0,0,0,0,0,0,0,0,0,0,0,0,0,0,0,0,0,0,0,0,0,0,0,0,0,0,0,0,0,0,0,0,0,0,0,0,0,-1.9407,-1.9408,0,-1.9422,-1.9423,-1.9423,-1.9392,-1.9391,-1.939,-1.9389,-1.9405,-1.9407,-1.9408,0,0,0,0,0,0,0,0,0,0,0,0,0,-1.9352,-1.9353,-1.9407,-1.9408,-1.9408,-1.9422,-1.9423,-1.9423,-1.9392,-1.9391,-1.939,-1.9389,-1.9405,-1.9407,-1.9408,0,0,0,0,0,0,0,0,0,0,0,0,0,-1.9373,-1.9354,-1.9407,-1.9394,-1.9393,-1.9422,-1.9423,-1.9423,-1.9393,-1.9391,-1.939,-1.9388,-1.9404,-1.9406,-1.9408,-1.9451,0,0,-1.9415,-1.9416,0,0,0,0,0,0,0,0,-1.9371,-1.9375,-1.9396,-1.9395,-1.9394,-1.9404,-1.9409,-1.9432,-1.9393,-1.9393,-1.9389,-1.9388,-1.9406,-1.9408,-1.9414,-1.9452,-1.9453,-1.9415,-1.9416,-1.9417,-1.9418,0,0,0,0,0,0,0,-1.937,-1.9374,-1.9413,-1.9396,-1.9395,-1.9388,-1.9389,-1.9413,-1.9408,-1.9393,-1.9391,-1.9393,-1.9405,-1.9412,-1.9414,-1.9453,-1.9415,-1.9417,-1.9418,-1.9419,-1.9526,-1.9528,0,0,0,0,0,0,-1.937,-1.9373,-1.9413,-1.9414,-1.9379,-1.939,-1.9391,-1.9402,-1.9407,-1.9407,-1.9394,-1.9391,-1.9409,-1.9412,-1.9415,-1.9465,-1.9417,-1.9419,-1.942,-1.9524,-1.9526,-1.9528,0,0,0,0,0,0,-1.9369,-1.9374,-1.9412,-1.9393,-1.9397,-1.9392,-1.9405,-1.9403,-1.941,-1.9408,-1.9407,-1.9402,-1.9408,-1.9412,-1.9442,-1.9465,-1.942,-1.9422,-1.9522,-1.9525,-1.9527,-1.9566,0,0,0,0,0,0,-1.9368,-1.9374,-1.939,-1.9393,-1.9398,-1.944,-1.9406,-1.9405,-1.9414,-1.941,-1.9416,-1.9415,-1.9407,-1.9439,-1.9444,-1.9467,-1.9423,-1.952,-1.9524,-1.9526,-1.9563,-1.957,-1.9576,0,0,0,0,0,-1.9366,-1.9401,-1.9391,-1.9396,-1.9418,-1.9441,-1.9444,-1.9434,-1.9416,-1.9432,-1.9431,-1.9415,-1.9462,-1.9443,-1.9448,-1.9472,-1.9519,-1.9523,-1.9526,-1.956,-1.9569,-1.9576,0,0,0,0,0,0,-1.9401,-1.9401,-1.939,-1.9427,-1.9434,-1.9436,-1.9456,-1.9443,-1.9456,-1.9452,-1.944,-1.9441,-1.9474,-1.9476,-1.9455,-1.9513,-1.9487,-1.9492,-1.9511,-1.9519,-1.9525,-1.9525,-1.9425,0,0,0,0,0,-1.9413,-1.9431,-1.943,-1.9463,-1.9467,-1.9461,-1.947,-1.9462,-1.9469,-1.9472,-1.9473,-1.948,-1.9497,-1.9508,-1.9523,-1.9563,-1.9564,-1.9582,-1.9588,-1.9593,-1.9598,-1.9619,-1.9628,-1.954,-1.954,-1.954,0,0,-1.9438,-1.944,-1.9453,-1.947,-1.9474,-1.9494,-1.9464,-1.9485,-1.95,-1.9475,-1.9504,-1.9505,-1.9512,-1.9548,-1.9563,-1.955,-1.9622,-1.9598,-1.9602,-1.9604,-1.9624,-1.9632,-1.964,-1.9543,-1.9542,-1.9542,0,0,-1.9494,-1.9497,-1.9525,-1.953,-1.9537,-1.9532,-1.9539,-1.9542,-1.9542,-1.957,-1.9552,-1.9569,-1.9597,-1.9603,-1.961,-1.9667,-1.9653,-1.9672,-1.9706,-1.9727,-1.9734,-1.974,-1.9761,-1.9768,-1.9677,-1.9677,-1.9677,0,-1.9524,-1.9552,-1.954,-1.9564,-1.9572,-1.955,-1.9578,-1.9583,-1.9595,-1.9601,-1.9586,-1.9621,-1.9624,-1.9661,-1.9675,-1.9681,-1.9688,-1.9672,-1.9734,-1.974,-1.9745,-1.9765,-1.9773,-1.9679,-1.9679,-1.9679,-1.9678,0,-1.959,-1.9609,-1.9631,-1.9643,-1.9653,-1.9678,-1.967,-1.9682,-1.9673,-1.967,-1.9699,-1.9702,-1.9718,-1.9725,-1.9717,-1.9761,-1.9752,-1.9736,-1.9709,-1.9756,-1.9775,-1.9782,-1.9683,-1.9682,-1.9681,-1.968,0,0,-1.9669,-1.9673,-1.9681,-1.9686,-1.9692,-1.9707,-1.9731,-1.9746,-1.9756,-1.9765,-1.9785,-1.9809,-1.9793,-1.9801,-1.9793,-1.9811,-1.9856,-1.9792,-1.9792,-1.9804,-1.9906,-1.9919,-1.9928,-1.9847,-1.9848,-1.9849,-1.9905,0,-1.9725,-1.9766,-1.9756,-1.9797,-1.9816,-1.9795,-1.9816,-1.9822,-1.9819,-1.9834,-1.9832,-1.9849,-1.9827,-1.9832,-1.9849,-1.9847,-1.9877,-1.9843,-1.9866,-1.9867,-1.9866,-1.9937,-1.9952,-2.0004,-1.9912,-1.9914,-1.9914,0,-1.9796,-1.9807,-1.985,-1.9852,-1.986,-1.9879,-1.9891,-1.9906,-1.9912,-1.9909,-1.9917,-1.9904,-1.9928,-1.9901,-1.9934,-1.9911,-1.9919,-1.992,-1.9922,-1.9924,-1.9894,-1.9943,-2.0021,-2.0029,-1.9925,-1.9925,-1.9924,0,-1.985,-1.9875,-1.9905,-1.9909,-1.9913,-1.9927,-1.9929,-1.9933,-1.9942,-1.9953,-1.9959,-1.9972,-1.998,-1.999,-1.9982,-1.9963,-2.0016,-1.9988,-2.0015,-2.0016,-2.0028,-2.0028,-2.011,-2.0032,-2.0032,-2.0032,-2.0032,0,-1.9914,-1.9942,-1.9929,-1.9947,-1.9977,-1.9965,-1.9995,-1.9994,-1.9998,-2.0016,-1.9998,-2.0015,-2.0002,-2.0018,-2.0012,-2.004,-2.0044,-2.0042,-2.004,-2.0044,-2.0045,-2.0051,-2.0047,-2.0034,-2.0034,-2.0033,-2.0033,0,-1.9981,-1.9973,-2.0004,-2.0004,-2.0005,-2.0027,-2.0027,-2.0044,-2.004,-2.0063,-2.0067,-2.0061,-2.0079,-2.0071,-2.009,-2.0085,-2.0122,-2.0115,-2.012,-2.0119,-2.0146,-2.0144,-2.0236,-2.0247,-2.0162,-2.0162,-2.0163,0,-2.0022,-2.0043,-2.0045,-2.0056,-2.0059,-2.0076,-2.0085,-2.0073,-2.0084,-2.0092,-2.0107,-2.0123,-2.0136,-2.0165,-2.0162,-2.0176,-2.017,-2.0201,-2.0172,-2.0175,-2.0171,-2.0171,-2.0173,-2.0207,-2.0208,-2.0209,-2.021,0,-2.0098,-2.0093,-2.0107,-2.0119,-2.0131,-2.014,-2.0148,-2.0158,-2.0146,-2.0158,-2.0176,-2.0186,-2.0204,-2.0221,-2.0233,-2.0235,-2.0221,-2.0219,-2.0226,-2.0231,-2.0233,-2.0233,-2.0137,-2.0217,-2.0216,-2.0216,-2.0215,-2.0215,-2.0153,-2.0171,-2.0175,-2.0191,-2.0196,-2.0203,-2.0219,-2.0217,-2.0231,-2.0246,-2.0237,-2.0258,-2.0263,-2.0278,-2.0282,-2.0298,-2.0286,-2.0296,-2.0299,-2.0302,-2.0306,-2.023,-2.03,-2.03,-2.03,-2.0299,-2.0299,0,-2.0228,-2.023,-2.0245,-2.0256,-2.0269,-2.0253,-2.0261,-2.0273,-2.0291,-2.0297,-2.0309,-2.0329,-2.0345,-2.0343,-2.0357,-2.037,-2.0364,-2.0375,-2.0374,-2.0375,-2.0315,-2.0308,-2.0379,-2.0379,-2.0379,-2.0379,-2.0379,-2.0379,-2.0269,-2.0297,-2.0293,-2.0324,-2.0325,-2.0345,-2.0351,-2.0358,-2.0362,-2.0385,-2.0398,-2.0396,-2.0399,-2.0413,-2.0427,-2.0426,-2.0432,-2.0445,-2.0442,-2.0387,-2.0379,-2.0372,-2.0365,-2.0447,-2.0447,-2.05,-2.0501,-2.0501]}]]